Погода Ярково

Погода Ярково : погода сейчас, прогноз погоды и архив. Всё, что Вы хотите узнать о погоде Ярково!

Хотите узнать прогноз погоды Ярково? Тогда Вам сюда: Погода Ярково

Поиск расширенной информации на нашем сайте:

Другие новости

Новости СМИ2

Главная страница сайта

Новости сайта

03.07.2017

Напоминаем, что на нашем специализированном сайте Метеоцентр.Азия вы можете получить высокодетализированные автоматические прогнозы погоды по пунктам России, СНГ и мира в авиационном формате (включающие направление и скорость ветра, видимость, явления погоды, количество и форму облачности, нижнюю и верхнюю границу облачности).

Рекомендуем: relux ватные валочки

Погода Ярково - сегодня

Время (UTC), дата Ветер
(°,м/с) 
Видим.   Явления Облачность Т
(°С)
Тd
(°С)
f(%) Тe
(°С)
Pmin
(гПа)
dP
(гПа)
Po
(мм)
O2
(г/м3)
Тmin Tmax R s Состояние
почвы
03 21.09.17 020 (С) 10 км  в посл. час ливневой дождь  10/10 600 м кучево-дожд. 
[Cb cap]
+7.8 +6.3 90 +8  1015.9  1.8  757  296  +7.8    0.6     
06 21.09.17 360 (С) 10 км  {ливн. осадки}  10/10 600 м кучево-дожд. 
[Cb cap]
+8.5 +5.3 80 +8  1018  759  296           
09 21.09.17 020 (С) 10 км  {ливн. осадки}  10/10 600 м кучево-дожд. 
[Cb cap]
+8.3 +4.4 76 +8  1020  760  297           
12 21.09.17 010 (С) 10 км  {ливн. осадки}  10/10 600 м 
[Sc]
+8.7 +4.2 73 +8  1021.8  1.8  762  297           
15 21.09.17 340 (С) 10 км    10/10 1000 м 
[Sc]
+7.6 +4.5 81 +8  1023.1  1.2  763  298    +8.8  0.0     
18 21.09.17 330 (СЗ) 10 км  {ливн. осадки}  ясно 
+5.4 +3.8 89 +6  1024.1  0.9  763  301           
21 21.09.17 310 (СЗ) 10 км    4/4 1000 м кучево-дожд. 
[Cb cap]
+4 +2.9 93 +4  1024.3  0.2  764  303           
00 22.09.17 330 (СЗ) 10 км    10/10 1000 м кучево-дожд. 
[Cb cap]
+5.6 +3.8 88 +5  1024.4  0.2  764  301           
03 22.09.17 350 (С) 10 км  {ливн. осадки}  10/10 1000 м кучево-дожд. 
[Cb cap]
+5.7 +4 89 +5  1025  0.5  764  301  +4    0.4    влажная 
06 22.09.17 350 (С) 10 км  {ливн. осадки}  9/9 600 м кучево-дожд. 
[Cb cap]
+7.4 +2.1 69 +6  1025.7  0.7  765  300           
09 22.09.17 010 (С) 5-10{12}  10 км  {ливн. осадки}  8/8 1000 м 
[Sc]
+7.3 -2 52 +6  1026.9  1.2  766  301           
12 22.09.17 020 (С) 4-10{12}  10 км  {ливн. осадки}  9/9 600 м кучево-дожд. 
[Cb cap]
+5.8 -3.4 52 +4  1028.5  1.5  767  303           
15 22.09.17 020 (С) 3{10}  10 км    10/10 600 м кучево-дожд. 
[Cb cap]
+4.4 -3.5 56 +3  1029.9  1.4  768  305    +8.1  0.0     
18 22.09.17 360 (С) 10 км    10/10 600 м кучево-дожд. 
[Cb cap]
+3.3 -3.9 59 +2  1030.3  0.4  768  306           
21 22.09.17 020 (С) 10 км    10/10 600 м кучево-дожд. 
[Cb cap]
+2.1 -4.4 62 +1  1031  0.6  768  308           
00 23.09.17 350 (С) 10 км    10/10 600 м кучево-дожд. 
[Cb cap]
+1.8 -5.2 60 1031.6  0.6  769  308           
03 23.09.17 360 (С) 10 км    10/10 1000 м 
[Sc]
+1.9 -5.4 58 1032.1  0.5  769  308  +1.7        сухая 
06 23.09.17 350 (С) 4{10}  10 км    10/10 1000 м 
[Sc]
+2.8 -5 56 +1  1032.3  0.2  769  307           
09 23.09.17 020 (С) 10 км    10/10 1000 м 
[Sc]
+3.8 -3.9 57 +3  1032.3  769  306           
12 23.09.17 360 (С) 10 км    10/10 1000 м 
[Sc]
+3.5 -5 54 +3  1032.6  0.3  770  307           
15 23.09.17 330 (СЗ) 10 км    10/10 1000 м 
[Sc]
+2.8 -4 61 +4  1032.9  0.3  770  308    +4.3       
18 23.09.17 тихо ()   10 км    10/10 1000 м 
[Sc]
+1.8 -2.8 71 +2  1033.1  0.2  770  309           
21 23.09.17 070 (В) 10 км    10/10 1000 м 
[Sc]
+2.4 -3.3 66 +3  1033.8  0.7  771  308           
00 24.09.17 тихо ()   10 км    10/10 1000 м 
[Sc]
+0.4 -2.8 79 1034.8  0.9  771  311           
03 24.09.17 060 (СВ) 10 км    3/1 1000 м верхняя 
[Sc diur, vesp|Ci fib]
+1.3 -3.7 69 +2  1036.2  1.4  772  310  -2.1        сухая 
Время (UTC), дата Ветер
(°,м/с) 
Видим.   Явления Облачность Т
(°С)
Тd
(°С)
f(%) Тe
(°С)
Pmin
(гПа)
dP
(гПа)
Po
(мм)
O2
(г/м3)
Тmin Tmax R s Состояние
почвы

Для получения пояснительной информации подведите курсор к названию столбца.

ПОГОДА Ярково - архив

Всё, что Вы хотите узнать о погоде Ярково - удобно и подробно!

Выберите нужную дату (начиная с 1 января 2015* года) и нажмите кнопку "Найти".
Будут отображены архивные сводки погоды по пункту Ярково, начиная с указанной даты.


Отображать данные в формате CSV (для использования в таблицах Excel)


Внимание! Наш архив погоды предназначен исключительно для личного некоммерческого использования в познавательных целях. Если Вам необходимы официальные справки о состоянии погоды (для производственных, юридических, коммерческих и т.п. целей), обращайтесь в органы Росгидромета.

*Примечание: данная дата относится к архиву по метеостанциям СССР (Россия, СНГ, Балтия).
Архив по метеостанциям Зарубежной Европы и Азии (кроме Китая) хранится 10 дней, по другим регионам земного шара (Китай, Африка, Америка, Австралия, Океания) - 1 день.

Ярково - район местоположения метеостанции


Название, широта, долгота, высота метеостанции:
Ярково 57.4°ш. 67.1°д. 50 м над ур. моря [Российская Федерация]

Дополнительная информация

В oтличие oт бoльшинства пoгoдных сайтoв мы публикуем пoдрoбную метеoинфoрмацию в детальнoм прoфессиoнальнoм фoрмате.

Характеристики температуры и влажнoсти вoздуха измеряются на высoте 2 м в тени вдали oт зданий и деревьев.
Скoрoсть ветра измеряется на высoте 10 м (на урoвне рoста челoвека скoрoсть ветра ниже в 1.5-2 раза). Если метеoстанция нахoдится в гoрoде или в лесу, тo скoрoсть ветра занижена на 2-4 м/с пo сравнению с oткрытым местoм. Скoрoсть ветра над акватoриями крупных рек и oзёр, а также на вершинах хoлмoв на 2-5 м/с выше, чем в oбычных услoвиях.
Атмoсфернoе давление в разных тoчках местнoсти мoжет значительнo oтличаться oт давления на метеoстанции, в зависимoсти oт услoвий рельефа (при пoдъёме на 10 м давление пoнижается примернo на 1 мм рт.ст.).